• Em Portugal
  • Lista de países
  • Para 7 dias
  • Temperatura da água
  • Mapas de satélite
  • Mapa do tempo
  • Widgets de tempo
  • user-avatar
    Iniciar Sessão

    Previsão horária em Rangpur

    Hoje, 21 Novembro, Terça-feira

    Tempo Temperatura Precipitação Vento Pressão Humidade
    00:00 +24°C° 0 mm 1 m/s 755 mmHg 68%
    01:00 +24°C° 0 mm 1 m/s 755 mmHg 70%
    02:00 +23°C° 0 mm 1 m/s 755 mmHg 72%
    03:00 +23°C° 0 mm 1 m/s 755 mmHg 73%
    04:00 +23°C° 0 mm 1 m/s 755 mmHg 75%
    05:00 +22°C° 0 mm 1 m/s 755 mmHg 77%
    06:00 +22°C° 0 mm 1 m/s 755 mmHg 77%
    07:00 +23°C° 0 mm 1 m/s 756 mmHg 73%
    08:00 +24°C° 0 mm 1 m/s 756 mmHg 69%
    09:00 +26°C° 0 mm 1 m/s 757 mmHg 65%
    10:00 +27°C° 0 mm 1 m/s 756 mmHg 59%
    11:00 +28°C° 0 mm 1 m/s 756 mmHg 53%
    12:00 +30°C° 0 mm 2 m/s 756 mmHg 44%
    13:00 +30°C° 0 mm 2 m/s 755 mmHg 43%
    14:00 +30°C° 0 mm 3 m/s 755 mmHg 43%
    15:00 +31°C° 0 mm 3 m/s 755 mmHg 42%
    16:00 +29°C° 0 mm 3 m/s 755 mmHg 46%
    17:00 +27°C° 0 mm 3 m/s 755 mmHg 50%
    18:00 +26°C° 0 mm 2 m/s 755 mmHg 53%
    19:00 +25°C° 0 mm 2 m/s 755 mmHg 54%
    20:00 +24°C° 0 mm 2 m/s 755 mmHg 54%
    21:00 +24°C° 0 mm 2 m/s 756 mmHg 55%
    22:00 +23°C° 0 mm 2 m/s 756 mmHg 55%
    23:00 +21°C° 0 mm 2 m/s 756 mmHg 56%

    Amanhã, 22 Novembro, Quarta-feira

    Tempo Temperatura Precipitação Vento Pressão Humidade
    00:00 +21°C° 0 mm 2 m/s 756 mmHg 56%
    01:00 +20°C° 0 mm 2 m/s 755 mmHg 58%
    02:00 +20°C° 0 mm 2 m/s 755 mmHg 59%
    03:00 +20°C° 0 mm 2 m/s 755 mmHg 61%
    04:00 +19°C° 0 mm 2 m/s 755 mmHg 63%
    05:00 +19°C° 0 mm 2 m/s 755 mmHg 65%
    06:00 +20°C° 0 mm 1 m/s 755 mmHg 67%
    07:00 +20°C° 0 mm 2 m/s 756 mmHg 65%
    08:00 +21°C° 0 mm 2 m/s 756 mmHg 64%
    09:00 +24°C° 0 mm 2 m/s 757 mmHg 62%
    10:00 +25°C° 0 mm 2 m/s 756 mmHg 59%
    11:00 +27°C° 0 mm 2 m/s 756 mmHg 55%
    12:00 +28°C° 0 mm 2 m/s 756 mmHg 52%
    13:00 +28°C° 0 mm 2 m/s 755 mmHg 50%
    14:00 +29°C° 0 mm 1 m/s 754 mmHg 48%
    15:00 +29°C° 0 mm 1 m/s 753 mmHg 46%
    16:00 +28°C° 0 mm 1 m/s 754 mmHg 49%
    17:00 +26°C° 0 mm 2 m/s 754 mmHg 52%
    18:00 +25°C° 0 mm 2 m/s 754 mmHg 55%
    19:00 +24°C° 0 mm 2 m/s 754 mmHg 55%
    20:00 +24°C° 0 mm 2 m/s 755 mmHg 56%
    21:00 +23°C° 0 mm 2 m/s 755 mmHg 56%
    22:00 +21°C° 0 mm 2 m/s 755 mmHg 57%
    23:00 +21°C° 0 mm 2 m/s 755 mmHg 58%

    Depois de amanhã, 23 Novembro, Quinta-feira

    Tempo Temperatura Precipitação Vento Pressão Humidade
    00:00 +20°C° 0 mm 2 m/s 755 mmHg 59%
    01:00 +20°C° 0 mm 2 m/s 755 mmHg 60%
    02:00 +20°C° 0 mm 2 m/s 755 mmHg 61%
    03:00 +19°C° 0 mm 2 m/s 755 mmHg 63%
    04:00 +19°C° 0 mm 2 m/s 755 mmHg 65%
    05:00 +19°C° 0 mm 2 m/s 755 mmHg 66%
    06:00 +19°C° 0 mm 2 m/s 755 mmHg 68%
    07:00 +20°C° 0 mm 2 m/s 756 mmHg 65%
    08:00 +21°C° 0 mm 2 m/s 756 mmHg 63%
    09:00 +24°C° 0 mm 2 m/s 757 mmHg 60%
    10:00 +25°C° 0 mm 2 m/s 757 mmHg 57%
    11:00 +27°C° 0 mm 2 m/s 756 mmHg 55%
    12:00 +28°C° 0 mm 2 m/s 756 mmHg 52%
    13:00 +28°C° 0 mm 2 m/s 755 mmHg 51%
    14:00 +28°C° 0 mm 2 m/s 754 mmHg 50%
    15:00 +29°C° 0 mm 2 m/s 754 mmHg 49%
    16:00 +27°C° 0 mm 2 m/s 754 mmHg 53%
    17:00 +26°C° 0 mm 1 m/s 754 mmHg 57%
    18:00 +25°C° 0 mm 1 m/s 754 mmHg 61%
    19:00 +24°C° 0 mm 1 m/s 755 mmHg 63%
    20:00 +24°C° 0 mm 1 m/s 756 mmHg 64%
    21:00 +23°C° 0 mm 1 m/s 756 mmHg 66%
    22:00 +23°C° 0 mm 2 m/s 756 mmHg 67%
    23:00 +21°C° 0 mm 2 m/s 756 mmHg 68%

    24 Novembro, Sexta-feira

    Tempo Temperatura Precipitação Vento Pressão Humidade
    00:00 +21°C° 0 mm 2 m/s 756 mmHg 68%
    01:00 +20°C° 0 mm 2 m/s 756 mmHg 69%
    02:00 +20°C° 0 mm 2 m/s 756 mmHg 70%
    03:00 +20°C° 0 mm 2 m/s 756 mmHg 71%
    04:00 +19°C° 0 mm 2 m/s 756 mmHg 71%
    05:00 +19°C° 0 mm 2 m/s 756 mmHg 72%
    06:00 +19°C° 0 mm 2 m/s 756 mmHg 72%
    07:00 +20°C° 0 mm 2 m/s 757 mmHg 68%
    08:00 +21°C° 0 mm 2 m/s 757 mmHg 63%
    09:00 +24°C° 0 mm 2 m/s 758 mmHg 59%
    10:00 +25°C° 0 mm 2 m/s 758 mmHg 55%
    11:00 +26°C° 0 mm 2 m/s 757 mmHg 52%
    12:00 +28°C° 0 mm 2 m/s 757 mmHg 48%
    13:00 +28°C° 0 mm 2 m/s 756 mmHg 47%
    14:00 +28°C° 0 mm 1 m/s 756 mmHg 47%
    15:00 +29°C° 0 mm 1 m/s 755 mmHg 46%
    16:00 +27°C° 0 mm 1 m/s 755 mmHg 49%
    17:00 +26°C° 0 mm 1 m/s 755 mmHg 53%
    18:00 +25°C° 0 mm 1 m/s 756 mmHg 57%
    19:00 +24°C° 0 mm 1 m/s 756 mmHg 59%
    20:00 +24°C° 0 mm 1 m/s 757 mmHg 60%
    21:00 +23°C° 0 mm 1 m/s 757 mmHg 62%
    22:00 +23°C° 0 mm 1 m/s 757 mmHg 63%
    23:00 +22°C° 0 mm 1 m/s 757 mmHg 64%

    25 Novembro, Sábado

    Tempo Temperatura Precipitação Vento Pressão Humidade
    00:00 +22°C° 0 mm 1 m/s 757 mmHg 65%
    01:00 +21°C° 0 mm 1 m/s 757 mmHg 67%
    02:00 +21°C° 0 mm 1 m/s 757 mmHg 68%
    03:00 +20°C° 0 mm 1 m/s 757 mmHg 69%
    04:00 +19°C° 0 mm 2 m/s 757 mmHg 70%
    05:00 +19°C° 0 mm 2 m/s 758 mmHg 71%
    06:00 +19°C° 0 mm 2 m/s 758 mmHg 72%
    07:00 +20°C° 0 mm 2 m/s 758 mmHg 68%
    08:00 +21°C° 0 mm 3 m/s 759 mmHg 64%
    09:00 +22°C° 0 mm 3 m/s 759 mmHg 60%
    10:00 +25°C° 0 mm 3 m/s 759 mmHg 55%
    11:00 +26°C° 0 mm 3 m/s 758 mmHg 51%
    12:00 +28°C° 0 mm 3 m/s 758 mmHg 46%
    13:00 +28°C° 0 mm 3 m/s 757 mmHg 46%
    14:00 +28°C° 0 mm 2 m/s 757 mmHg 45%
    15:00 +28°C° 0 mm 2 m/s 756 mmHg 44%
    16:00 +27°C° 0 mm 2 m/s 756 mmHg 48%
    17:00 +26°C° 0 mm 2 m/s 757 mmHg 52%
    18:00 +24°C° 0 mm 1 m/s 757 mmHg 57%
    19:00 +24°C° 0 mm 1 m/s 758 mmHg 59%
    20:00 +23°C° 0 mm 1 m/s 758 mmHg 62%
    21:00 +23°C° 0 mm 1 m/s 759 mmHg 64%
    22:00 +22°C° 0 mm 1 m/s 759 mmHg 66%
    23:00 +22°C° 0 mm 1 m/s 758 mmHg 67%

    26 Novembro, Domingo

    Tempo Temperatura Precipitação Vento Pressão Humidade
    00:00 +20°C° 0 mm 2 m/s 758 mmHg 68%
    01:00 +20°C° 0 mm 2 m/s 758 mmHg 69%
    02:00 +20°C° 0 mm 2 m/s 758 mmHg 69%
    03:00 +19°C° 0 mm 2 m/s 758 mmHg 70%
    04:00 +19°C° 0 mm 2 m/s 758 mmHg 70%
    05:00 +19°C° 0 mm 2 m/s 758 mmHg 70%
    06:00 +18°C° 0 mm 2 m/s 759 mmHg 70%
    07:00 +20°C° 0 mm 3 m/s 759 mmHg 66%
    08:00 +21°C° 0 mm 3 m/s 760 mmHg 62%
    09:00 +22°C° 0 mm 3 m/s 760 mmHg 57%
    10:00 +24°C° 0 mm 3 m/s 760 mmHg 53%
    11:00 +26°C° 0 mm 3 m/s 759 mmHg 49%
    12:00 +27°C° 0 mm 3 m/s 759 mmHg 45%
    13:00 +28°C° 0 mm 3 m/s 758 mmHg 45%
    14:00 +28°C° 0 mm 2 m/s 757 mmHg 44%
    15:00 +28°C° 0 mm 2 m/s 757 mmHg 43%
    16:00 +27°C° 0 mm 2 m/s 757 mmHg 48%
    17:00 +25°C° 0 mm 2 m/s 757 mmHg 52%
    18:00 +24°C° 0 mm 2 m/s 757 mmHg 56%
    19:00 +23°C° 0 mm 2 m/s 757 mmHg 59%
    20:00 +23°C° 0 mm 2 m/s 758 mmHg 61%
    21:00 +21°C° 0 mm 2 m/s 758 mmHg 63%
    22:00 +21°C° 0 mm 2 m/s 758 mmHg 63%
    23:00 +20°C° 0 mm 2 m/s 758 mmHg 64%
    Mostrar mais